"Pseudo-MPEC" for XRB0AED

Created 2016 Sep 4 16:21:55 UT using Find_Orb

Astrometry:
     K10B12U  S2010 01 16.58492 01 41 40.63 +19 51 25.5                L~0Ik7C51
     K10B12U  s2010 01 16.58492 1 + 6155.1067 + 2348.5184 + 2071.3587   ~0Ik7C51
     K10B12U  S2010 01 16.84953 01 41 55.78 +19 51 32.0                L~0Ik7C51
     K10B12U  s2010 01 16.84953 1 + 6151.6382 + 2384.0656 + 2040.9661   ~0Ik7C51
     K10B12U  S2010 01 16.98196 01 42 03.58 +19 51 37.0                L~0Ik7C51
     K10B12U  s2010 01 16.98196 1 + 6130.7231 + 2382.2529 + 2104.6091   ~0Ik7C51
     K10B12U  S2010 01 17.11427 01 42 11.32 +19 51 41.2                L~0Ik7C51
     K10B12U  s2010 01 17.11427 1 + 6129.0552 + 2400.3390 + 2087.9800   ~0Ik7C51
     K10B12U  S2010 01 17.18035 01 42 15.32 +19 51 44.7                L~0Ik7C51
     K10B12U  s2010 01 17.18035 1 + 6137.6807 + 2419.0048 + 2040.7792   ~0Ik7C51
     K10B12U  S2010 01 17.18048 01 42 15.25 +19 51 44.8                L~0Ik7C51
     K10B12U  s2010 01 17.18048 1 + 6118.5514 + 2399.1465 + 2119.7128   ~0Ik7C51
     K10B12U  S2010 01 17.24657 01 42 19.14 +19 51 46.1                L~0Ik8C51
     K10B12U  s2010 01 17.24657 1 + 6127.3809 + 2417.8566 + 2072.7547   ~0Ik8C51
     K10B12U  S2010 01 17.31279 01 42 23.03 +19 51 49.9                L~0Ik8C51
     K10B12U  s2010 01 17.31279 1 + 6116.9096 + 2416.6373 + 2104.9510   ~0Ik8C51
     K10B12U  S2010 01 17.57740 01 42 38.32 +19 51 56.0         x      L~0Ik8C51
     K10B12U  s2010 01 17.57740 1 + 6113.8023 + 2452.5013 + 2073.0891   ~0Ik8C51
     K10B12U  S2010 01 17.70983 01 42 46.47 +19 52 02.5                L~0Ik8C51
     K10B12U  s2010 01 17.70983 1 + 6092.7600 + 2450.2009 + 2136.1768   ~0Ik8C51
     XRB0AED  C2016 09 03.29610 21 48 29.79 +00 40 37.5          20.1 VqNEOCPG96
     XRB0AED  C2016 09 03.29796 21 48 29.61 +00 40 36.3          20.7 VqNEOCPG96
     XRB0AED  C2016 09 03.29982 21 48 29.47 +00 40 36.6          19.9 VqNEOCPG96

Station data:
(C51) WISE. Measurers A. Mainzer, E. Wright, J. Bauer, T. Grav, J. Dailey, J.
    Masiero, R. Cutri, R. McMillan, R. Walker.
(G96) Mt. Lemmon Survey (N32.44287 W110.78872)  US/Arizona.   Observers E. J.
    Christensen, A. R. Gibbs, A. D. Grauer, R. E. Hill, J. A. Johnson, R. A.
    Kowalski, S. M. Larson, F. C. Shelly.  1.5-m reflector + CCD.

Orbital elements:  2010 BU12
   Perihelion 2008 Dec 12.737978 +/- 4.64 TT = 17:42:41 (JD 2454813.237978)
Epoch 2010 Jan 17.0 TT = JDT 2455213.5   Earth MOID: 0.9643   Find_Orb
M 107.024107 +/- 1.1
n   0.267385115 +/- 0.000194        Peri.    0.222491 +/- 0.19
a   2.386224116 +/- 0.00115         Node   288.710017 +/- 0.28
e   0.16987311 +/- 0.00729          Incl.    9.416369 +/- 0.032
P   3.69                   H 17.9   G  0.15   U  7.2  
q 1.980868796 +/- 0.0183    Q 2.791579437 +/- 0.0161
12 of 13 observations 2010 Jan. 16-2016 Sept. 3; mean residual 0".814
Residuals in arcseconds: 
100116 C51 1.68+ .413+    100117 C51 .127- .773+    160903 G96 .988+ .445+    
100116 C51 1.78- 1.20-    100117 C51 .055+ .227-    160903 G96 .201- .500-    
100116 C51 .814- .415-    100117 C51 .063+ 1.29+    160903 G96 .789- .054+    
100117 C51 .828- .606-    100117 C51(4.08- 2.18-)   
100117 C51 .974+ .627+    100117 C51 .509+ .619-    

Ephemerides (geocentric):
Date (UTC) HH   RA              Dec         delta   r     elong  mag " sig PA
---- -- -- --  ------------   ------------  ------ ------ -----  --- ---- ---
2016 09 04 16  21 47 20.568   +00 37 28.46  1.0977 2.0789 161.6 20.3   69  61
2016 09 04 17  21 47 18.501   +00 37 22.43  1.0979 2.0789 161.5 20.3   69  60
2016 09 04 18  21 47 16.436   +00 37 16.40  1.0981 2.0790 161.5 20.3   69  60
2016 09 04 19  21 47 14.373   +00 37 10.36  1.0982 2.0790 161.5 20.3   69  60
2016 09 04 20  21 47 12.313   +00 37 04.31  1.0984 2.0791 161.4 20.3   70  60
2016 09 04 21  21 47 10.255   +00 36 58.25  1.0986 2.0792 161.4 20.3   70  60
2016 09 04 22  21 47 08.199   +00 36 52.18  1.0988 2.0792 161.3 20.3   70  60
2016 09 04 23  21 47 06.146   +00 36 46.11  1.0989 2.0793 161.3 20.3   70  60
2016 09 05 00  21 47 04.095   +00 36 40.02  1.0991 2.0793 161.3 20.3   70  60
2016 09 05 01  21 47 02.046   +00 36 33.93  1.0993 2.0794 161.2 20.3   71  60
2016 09 05 02  21 47 00.000   +00 36 27.82  1.0995 2.0794 161.2 20.3   71  60
2016 09 05 03  21 46 57.956   +00 36 21.71  1.0996 2.0795 161.2 20.3   71  60
2016 09 05 04  21 46 55.915   +00 36 15.59  1.0998 2.0796 161.1 20.3   71  60
2016 09 05 05  21 46 53.875   +00 36 09.46  1.1000 2.0796 161.1 20.3   71  59
2016 09 05 06  21 46 51.838   +00 36 03.32  1.1002 2.0797 161.1 20.3   72  59
2016 09 05 07  21 46 49.804   +00 35 57.17  1.1004 2.0797 161.0 20.3   72  59
2016 09 05 08  21 46 47.772   +00 35 51.02  1.1005 2.0798 161.0 20.3   72  59
2016 09 05 09  21 46 45.742   +00 35 44.85  1.1007 2.0799 161.0 20.3   72  59
2016 09 05 10  21 46 43.715   +00 35 38.68  1.1009 2.0799 160.9 20.3   72  59
2016 09 05 11  21 46 41.689   +00 35 32.50  1.1011 2.0800 160.9 20.3   73  59
2016 09 05 12  21 46 39.667   +00 35 26.31  1.1013 2.0800 160.8 20.3   73  59
2016 09 05 13  21 46 37.647   +00 35 20.11  1.1014 2.0801 160.8 20.3   73  59
2016 09 05 14  21 46 35.629   +00 35 13.90  1.1016 2.0801 160.8 20.3   73  59
2016 09 05 15  21 46 33.613   +00 35 07.69  1.1018 2.0802 160.7 20.3   73  59
2016 09 05 16  21 46 31.600   +00 35 01.47  1.1020 2.0803 160.7 20.3   74  59
2016 09 05 17  21 46 29.590   +00 34 55.23  1.1022 2.0803 160.7 20.3   74  59
2016 09 05 18  21 46 27.581   +00 34 48.99  1.1024 2.0804 160.6 20.3   74  59
2016 09 05 19  21 46 25.576   +00 34 42.74  1.1025 2.0804 160.6 20.3   74  59
2016 09 05 20  21 46 23.572   +00 34 36.49  1.1027 2.0805 160.6 20.3   75  58
2016 09 05 21  21 46 21.571   +00 34 30.22  1.1029 2.0805 160.5 20.3   75  58
2016 09 05 22  21 46 19.573   +00 34 23.95  1.1031 2.0806 160.5 20.4   75  58
2016 09 05 23  21 46 17.577   +00 34 17.67  1.1033 2.0807 160.4 20.4   75  58
2016 09 06 00  21 46 15.583   +00 34 11.38  1.1035 2.0807 160.4 20.4   75  58
2016 09 06 01  21 46 13.592   +00 34 05.08  1.1036 2.0808 160.4 20.4   76  58
2016 09 06 02  21 46 11.603   +00 33 58.78  1.1038 2.0808 160.3 20.4   76  58
2016 09 06 03  21 46 09.617   +00 33 52.46  1.1040 2.0809 160.3 20.4   76  58
2016 09 06 04  21 46 07.633   +00 33 46.14  1.1042 2.0809 160.3 20.4   76  58
2016 09 06 05  21 46 05.651   +00 33 39.81  1.1044 2.0810 160.2 20.4   76  58
2016 09 06 06  21 46 03.673   +00 33 33.48  1.1046 2.0811 160.2 20.4   77  58
2016 09 06 07  21 46 01.696   +00 33 27.13  1.1048 2.0811 160.1 20.4   77  58
2016 09 06 08  21 45 59.722   +00 33 20.78  1.1050 2.0812 160.1 20.4   77  58
2016 09 06 09  21 45 57.751   +00 33 14.42  1.1052 2.0812 160.1 20.4   77  58
2016 09 06 10  21 45 55.782   +00 33 08.05  1.1053 2.0813 160.0 20.4   78  58
2016 09 06 11  21 45 53.815   +00 33 01.68  1.1055 2.0814 160.0 20.4   78  58
2016 09 06 12  21 45 51.851   +00 32 55.29  1.1057 2.0814 160.0 20.4   78  58
2016 09 06 13  21 45 49.890   +00 32 48.90  1.1059 2.0815 159.9 20.4   78  57
2016 09 06 14  21 45 47.931   +00 32 42.50  1.1061 2.0815 159.9 20.4   78  57
2016 09 06 15  21 45 45.974   +00 32 36.10  1.1063 2.0816 159.9 20.4   79  57
2016 09 06 16  21 45 44.020   +00 32 29.68  1.1065 2.0816 159.8 20.4   79  57
2016 09 06 17  21 45 42.069   +00 32 23.26  1.1067 2.0817 159.8 20.4   79  57
2016 09 06 18  21 45 40.120   +00 32 16.83  1.1069 2.0818 159.7 20.4   79  57
2016 09 06 19  21 45 38.174   +00 32 10.40  1.1071 2.0818 159.7 20.4   80  57
2016 09 06 20  21 45 36.230   +00 32 03.95  1.1073 2.0819 159.7 20.4   80  57
2016 09 06 21  21 45 34.288   +00 31 57.50  1.1074 2.0819 159.6 20.4   80  57
2016 09 06 22  21 45 32.350   +00 31 51.04  1.1076 2.0820 159.6 20.4   80  57
2016 09 06 23  21 45 30.413   +00 31 44.58  1.1078 2.0821 159.6 20.4   80  57
2016 09 07 00  21 45 28.480   +00 31 38.11  1.1080 2.0821 159.5 20.4   81  57
2016 09 07 01  21 45 26.548   +00 31 31.63  1.1082 2.0822 159.5 20.4   81  57
2016 09 07 02  21 45 24.620   +00 31 25.14  1.1084 2.0822 159.4 20.4   81  57
2016 09 07 03  21 45 22.694   +00 31 18.65  1.1086 2.0823 159.4 20.4   81  57
2016 09 07 04  21 45 20.770   +00 31 12.14  1.1088 2.0823 159.4 20.4   82  57
2016 09 07 05  21 45 18.850   +00 31 05.64  1.1090 2.0824 159.3 20.4   82  57
2016 09 07 06  21 45 16.931   +00 30 59.12  1.1092 2.0825 159.3 20.4   82  57
2016 09 07 07  21 45 15.015   +00 30 52.60  1.1094 2.0825 159.2 20.4   82  57
2016 09 07 08  21 45 13.102   +00 30 46.07  1.1096 2.0826 159.2 20.4   82  57
2016 09 07 09  21 45 11.192   +00 30 39.53  1.1098 2.0826 159.2 20.4   83  57
2016 09 07 10  21 45 09.284   +00 30 32.99  1.1100 2.0827 159.1 20.4   83  56
2016 09 07 11  21 45 07.378   +00 30 26.44  1.1102 2.0828 159.1 20.4   83  56
2016 09 07 12  21 45 05.476   +00 30 19.88  1.1104 2.0828 159.1 20.4   83  56
2016 09 07 13  21 45 03.575   +00 30 13.32  1.1106 2.0829 159.0 20.4   84  56
2016 09 07 14  21 45 01.678   +00 30 06.75  1.1108 2.0829 159.0 20.4   84  56
2016 09 07 15  21 44 59.783   +00 30 00.17  1.1110 2.0830 158.9 20.4   84  56
2016 09 07 16  21 44 57.891   +00 29 53.59  1.1112 2.0830 158.9 20.4   84  56
2016 09 07 17  21 44 56.001   +00 29 47.00  1.1114 2.0831 158.9 20.4   84  56
2016 09 07 18  21 44 54.114   +00 29 40.40  1.1116 2.0832 158.8 20.4   85  56
2016 09 07 19  21 44 52.229   +00 29 33.80  1.1118 2.0832 158.8 20.4   85  56
2016 09 07 20  21 44 50.347   +00 29 27.18  1.1120 2.0833 158.8 20.4   85  56
2016 09 07 21  21 44 48.468   +00 29 20.57  1.1122 2.0833 158.7 20.4   85  56
2016 09 07 22  21 44 46.592   +00 29 13.94  1.1124 2.0834 158.7 20.4   86  56
2016 09 07 23  21 44 44.718   +00 29 07.31  1.1126 2.0835 158.6 20.4   86  56
2016 09 08 00  21 44 42.846   +00 29 00.68  1.1128 2.0835 158.6 20.4   86  56
2016 09 08 01  21 44 40.978   +00 28 54.04  1.1130 2.0836 158.6 20.4   86  56
2016 09 08 02  21 44 39.112   +00 28 47.39  1.1132 2.0836 158.5 20.4   87  56
2016 09 08 03  21 44 37.249   +00 28 40.73  1.1134 2.0837 158.5 20.4   87  56
